Simultaneous Nadir Overpasses (SNOs) Predictions

Prediction of SNOs between GOES-14 and NPP Satellite Orbit:

Table of predicted SNOs for the next 14.0 days since TLE Epoch: 7/15/2024
Index Date Time (GOES-14) GOES-14 Lat,Lon NPP Lat,Lon Distance(km) Time Diff (sec)
1 07/15/2024 20:52:37 0.26,-108.46 -0.58,-112.18 423.65 80
2 07/16/2024 20:36:34 0.25,-108.46 0.43,-107.65 92.36 80
3 07/19/2024 08:36:59 -0.27,-108.49 -0.26,-108.40 9.63 80
4 07/21/2024 20:40:14 0.30,-108.43 0.11,-109.19 87.73 80
5 07/22/2024 20:24:11 0.28,-108.42 1.13,-104.67 428.05 80
6 07/24/2024 08:43:20 -0.32,-108.46 0.04,-109.95 170.08 80
7 07/25/2024 08:27:17 -0.30,-108.45 -0.99,-105.42 345.42 80
8 07/26/2024 20:46:35 0.33,-108.39 -0.17,-110.74 267.21 80
9 07/27/2024 20:30:30 0.32,-108.39 0.80,-106.21 248.64 80
